Voltar ao catálogo

USA 366

AtivoMilitarVLEO
NORAD 59826·PAYLOAD·🇺🇸 United States

Lançado May 22, 2024 de Vandenberg Space Force Base

Loading…

Próximas Passagens (próximas 24 horas)

TLE

ObsoletoSource: Mike McCants

Época: Aug 25, 2026, 20:20 UTC

1 59826U 24096N   26237.84743998 0.00000000  00000-0  00000-0 0    06
2 59826  70.0170 137.0430 0003000  49.3246 310.6753 14.96713175    05

Acompanhe USA 366 em tempo real com AllMySat

Download on the App Store